| time (UTC) | temp F | wind direction | speed knots | gust knots | rain 1hr in | rain 24hr in | rain mn in | humidity % | barometer mb |
| 20260507173048 | 58 | 146 | 0.9 | 7.0 | 0.00 | 0.00 | 0.00 | 35 | 1017.8 |
| 20260507171559 | 59 | 142 | 1.7 | 8.7 | 0.00 | 0.00 | 0.00 | 33 | 1017.8 |
| 20260507171503 | 59 | 113 | 2.6 | 8.7 | 0.00 | 0.00 | 0.00 | 34 | 1017.9 |
| 20260507170050 | 60 | 195 | 3.5 | 8.7 | 0.00 | 0.00 | 0.00 | 35 | 1017.8 |
| 20260507164505 | 61 | 181 | 1.7 | 10.4 | 0.00 | 0.00 | 0.00 | 28 | 1017.9 |
| 20260507163045 | 62 | 49 | 1.7 | 8.7 | 0.00 | 0.00 | 0.00 | 32 | 1017.7 |
| 20260507161511 | 62 | 198 | 2.6 | 6.1 | 0.00 | 0.00 | 0.00 | 32 | 1017.9 |
| 20260507160003 | 63 | 171 | 1.7 | 5.2 | 0.00 | 0.00 | 0.00 | 35 | 1018.1 |
| 20260507154522 | 63 | 147 | 2.6 | 7.8 | 0.00 | 0.00 | 0.00 | 35 | 1018.0 |
| 20260507153008 | 63 | 190 | 0.9 | 8.7 | 0.00 | 0.00 | 0.00 | 48 | 1018.3 |
| 20260507151529 | 64 | 238 | 1.7 | 7.0 | 0.00 | 0.00 | 0.00 | 44 | 1018.2 |
| 20260507150013 | 64 | 211 | 1.7 | 7.8 | 0.00 | 0.00 | 0.00 | 47 | 1018.1 |
| 20260507144534 | 64 | 236 | 1.7 | 6.1 | 0.00 | 0.00 | 0.00 | 44 | 1018.1 |
| 20260507143021 | 64 | 142 | 1.7 | 7.8 | 0.00 | 0.00 | 0.00 | 51 | 1018.2 |
| 20260507141542 | 63 | 196 | 2.6 | 8.7 | 0.00 | 0.00 | 0.00 | 49 | 1018.0 |
| 20260507140028 | 63 | 226 | 0.9 | 7.0 | 0.00 | 0.00 | 0.00 | 46 | 1018.1 |
| 20260507134545 | 64 | 58 | 2.6 | 8.7 | 0.00 | 0.00 | 0.00 | 46 | 1018.3 |
| 20260507133023 | 64 | 201 | 2.6 | 8.7 | 0.00 | 0.00 | 0.00 | 44 | 1018.3 |
| 20260507131551 | 64 | 222 | 0.9 | 7.0 | 0.00 | 0.00 | 0.00 | 41 | 1018.4 |
| 20260507130029 | 64 | 344 | 0.9 | 5.2 | 0.00 | 0.00 | 0.00 | 33 | 1018.4 |
| 20260507124539 | 64 | 163 | 0.9 | 5.2 | 0.00 | 0.00 | 0.00 | 24 | 1018.4 |
| 20260507123024 | 65 | 300 | 0.9 | 3.5 | 0.00 | 0.00 | 0.00 | 25 | 1018.5 |
| 20260507121554 | 66 | 96 | 0.9 | 5.2 | 0.00 | 0.00 | 0.00 | 23 | 1018.4 |
| 20260507120028 | 67 | 266 | 0.9 | 7.8 | 0.00 | 0.00 | 0.00 | 23 | 1018.5 |
| 20260507114559 | 69 | 207 | 0.9 | 6.1 | 0.00 | 0.00 | 0.00 | 25 | 1018.4 |
| 20260507113033 | 68 | 101 | 2.6 | 8.7 | 0.00 | 0.00 | 0.00 | 23 | 1018.5 |
| 20260507111550 | 68 | 262 | 0.9 | 3.5 | 0.00 | 0.00 | 0.00 | 27 | 1018.4 |
| 20260507110052 | 67 | 265 | 0.0 | 3.5 | 0.00 | 0.00 | 0.00 | 48 | 1018.5 |
| 20260507104505 | 68 | 302 | 0.9 | 4.3 | 0.00 | 0.00 | 0.00 | 44 | 1018.6 |
| 20260507103107 | 68 | 329 | 0.0 | 2.6 | 0.00 | 0.00 | 0.00 | 43 | 1018.7 |
| 20260507101503 | 68 | 346 | 0.9 | 4.3 | 0.00 | 0.00 | 0.00 | 29 | 1019.0 |
| 20260507100049 | 68 | 179 | 0.9 | 4.3 | 0.00 | 0.00 | 0.00 | 31 | 1019.0 |
| 20260507094502 | 68 | 288 | 2.6 | 6.1 | 0.00 | 0.00 | 0.00 | 45 | 1019.3 |
| 20260507093037 | 65 | 310 | 1.7 | 5.2 | 0.00 | 0.00 | 0.00 | 48 | 1019.1 |
| 20260507091547 | 63 | 301 | 0.0 | 1.7 | 0.00 | 0.00 | 0.00 | 40 | 1019.0 |
| 20260507090059 | 64 | 305 | 0.9 | 4.3 | 0.00 | 0.00 | 0.00 | 36 | 1018.1 |
| 20260507090000 | 65 | 301 | 0.9 | 4.3 | 0.00 | 0.00 | 0.00 | 34 | 1018.1 |
| 20260507084537 | 66 | 224 | 0.0 | 1.7 | 0.00 | 0.00 | 0.00 | 29 | 1018.7 |
| 20260507083028 | 65 | 338 | 0.0 | 1.7 | 0.00 | 0.00 | 0.00 | 37 | 1018.8 |
| 20260507081546 | 64 | 28 | 0.0 | 1.7 | 0.00 | 0.00 | 0.00 | 40 | 1019.2 |
| 20260507080029 | 64 | 348 | 0.9 | 3.5 | 0.00 | 0.00 | 0.00 | 47 | 1019.4 |
| 20260507074548 | 66 | 312 | 1.7 | 3.5 | 0.00 | 0.00 | 0.00 | 33 | 1019.3 |
| 20260507073014 | 64 | 212 | 0.9 | 2.6 | 0.00 | 0.00 | 0.00 | 36 | 1019.1 |
| 20260507071526 | 62 | 53 | 0.0 | 1.7 | 0.00 | 0.00 | 0.00 | 38 | 1019.2 |
| 20260507070009 | 61 | 36 | 0.0 | 1.7 | 0.00 | 0.00 | 0.00 | 38 | 1019.5 |
| 20260507064520 | 60 | 23 | 0.0 | 2.6 | 0.00 | 0.00 | 0.00 | 38 | 1019.6 |
| 20260507063052 | 59 | 280 | 0.0 | 2.6 | 0.00 | 0.00 | 0.00 | 38 | 1019.2 |
| 20260507061504 | 57 | 105 | 0.9 | 3.5 | 0.00 | 0.00 | 0.00 | 38 | 1018.9 |
| 20260507060034 | 56 | 63 | 0.0 | 1.7 | 0.00 | 0.00 | 0.00 | 53 | 1019.0 |
| 20260507054602 | 55 | 76 | 0.9 | 2.6 | 0.00 | 0.00 | 0.00 | 45 | 1019.2 |
| 20260507053010 | 53 | 115 | 0.0 | 0.0 | 0.00 | 0.00 | 0.00 | 55 | 1019.4 |
| 20260507051526 | 52 | 115 | 0.0 | 0.0 | 0.00 | 0.00 | 0.00 | 55 | 1019.5 |
| 20260507050019 | 51 | 115 | 0.0 | 0.0 | 0.00 | 0.00 | 0.00 | 54 | 1019.3 |
| 20260507044516 | 51 | 115 | 0.0 | 0.0 | 0.00 | 0.00 | 0.00 | 51 | 1018.8 |
| 20260507043100 | 50 | 115 | 0.0 | 0.0 | 0.00 | 0.00 | 0.00 | 50 | 1018.6 |
| 20260507041513 | 50 | 115 | 0.0 | 1.7 | 0.00 | 0.00 | 0.00 | 47 | 1018.4 |
| 20260507040001 | 50 | 115 | 0.0 | 0.0 | 0.00 | 0.00 | 0.00 | 45 | 1018.3 |
| 20260507034524 | 50 | 115 | 0.0 | 0.0 | 0.00 | 0.00 | 0.00 | 43 | 1018.2 |
| 20260507033014 | 50 | 115 | 0.0 | 0.0 | 0.00 | 0.00 | 0.00 | 44 | 1018.1 |
| 20260507031543 | 51 | 115 | 0.0 | 0.9 | 0.00 | 0.00 | 0.00 | 43 | 1017.9 |
| 20260507030019 | 51 | 113 | 0.0 | 0.0 | 0.00 | 0.00 | 0.00 | 42 | 1017.9 |
| 20260507024547 | 51 | 113 | 0.0 | 0.9 | 0.00 | 0.00 | 0.00 | 43 | 1018.2 |
| 20260507023021 | 51 | 113 | 0.0 | 0.0 | 0.00 | 0.00 | 0.00 | 43 | 1017.9 |
| 20260507021537 | 52 | 113 | 0.0 | 0.9 | 0.00 | 0.00 | 0.00 | 42 | 1017.8 |
| 20260507020012 | 52 | 153 | 0.0 | 0.0 | 0.00 | 0.00 | 0.00 | 44 | 1017.9 |
| 20260507014541 | 52 | 158 | 0.0 | 0.0 | 0.00 | 0.00 | 0.00 | 45 | 1018.1 |
| 20260507013014 | 52 | 158 | 0.0 | 1.7 | 0.00 | 0.00 | 0.00 | 50 | 1018.2 |
| 20260507011522 | 51 | 146 | 0.0 | 1.7 | 0.00 | 0.00 | 0.00 | 52 | 1017.9 |
| 20260507010011 | 50 | 147 | 0.0 | 0.0 | 0.00 | 0.00 | 0.00 | 56 | 1018.0 |
| 20260507004516 | 51 | 148 | 0.0 | 1.7 | 0.00 | 0.00 | 0.00 | 53 | 1018.2 |
| 20260507003021 | 51 | 126 | 0.0 | 1.7 | 0.00 | 0.00 | 0.00 | 50 | 1017.9 |
| 20260507001600 | 51 | 144 | 0.0 | 1.7 | 0.00 | 0.00 | 0.00 | 48 | 1018.0 |
| 20260507000036 | 51 | 173 | 0.0 | 1.7 | 0.00 | 0.00 | 0.00 | 43 | 1018.1 |
| 20260506234607 | 50 | 146 | 0.0 | 0.0 | 0.00 | 0.00 | 0.00 | 47 | 1018.0 |
| 20260506233050 | 51 | 146 | 0.0 | 2.6 | 0.00 | 0.00 | 0.00 | 40 | 1018.3 |
| 20260506231507 | 51 | 101 | 0.0 | 1.7 | 0.00 | 0.00 | 0.00 | 39 | 1018.1 |
| 20260506230041 | 51 | 140 | 0.0 | 1.7 | 0.00 | 0.00 | 0.00 | 41 | 1018.1 |
| 20260506224506 | 51 | 120 | 0.0 | 1.7 | 0.00 | 0.00 | 0.00 | 41 | 1018.1 |
| 20260506223043 | 50 | 128 | 0.9 | 1.7 | 0.00 | 0.00 | 0.00 | 39 | 1018.3 |
| 20260506221507 | 49 | 117 | 0.0 | 0.0 | 0.00 | 0.00 | 0.00 | 46 | 1018.3 |
| 20260506220047 | 49 | 116 | 0.0 | 0.9 | 0.00 | 0.00 | 0.00 | 48 | 1018.2 |
| 20260506214507 | 50 | 109 | 0.0 | 0.0 | 0.00 | 0.00 | 0.00 | 47 | 1018.2 |
| 20260506213044 | 50 | 109 | 0.0 | 0.9 | 0.00 | 0.00 | 0.00 | 50 | 1018.1 |
| 20260506211556 | 51 | 106 | 0.0 | 1.7 | 0.00 | 0.00 | 0.00 | 50 | 1018.2 |
| 20260506210031 | 53 | 98 | 0.0 | 3.5 | 0.00 | 0.00 | 0.00 | 48 | 1018.3 |
| 20260506204538 | 54 | 130 | 0.9 | 4.3 | 0.00 | 0.00 | 0.00 | 47 | 1018.6 |
| 20260506203023 | 54 | 55 | 0.0 | 7.8 | 0.00 | 0.00 | 0.00 | 50 | 1018.7 |
| 20260506201538 | 53 | 124 | 1.7 | 5.2 | 0.00 | 0.00 | 0.00 | 50 | 1018.8 |
| 20260506200030 | 53 | 72 | 0.0 | 0.0 | 0.00 | 0.00 | 0.00 | 60 | 1018.8 |
| 20260506194546 | 53 | 69 | 0.0 | 0.0 | 0.00 | 0.00 | 0.00 | 62 | 1018.8 |
| 20260506193041 | 53 | 144 | 0.0 | 0.0 | 0.00 | 0.00 | 0.00 | 62 | 1018.7 |
| 20260506191559 | 53 | 144 | 0.0 | 1.7 | 0.00 | 0.00 | 0.00 | 65 | 1018.7 |
| 20260506190026 | 53 | 71 | 0.0 | 0.9 | 0.00 | 0.00 | 0.00 | 63 | 1018.5 |
| 20260506184557 | 52 | 58 | 0.0 | 1.7 | 0.00 | 0.00 | 0.00 | 63 | 1018.5 |
| 20260506183033 | 53 | 103 | 0.0 | 1.7 | 0.00 | 0.00 | 0.00 | 60 | 1018.5 |
| 20260506181508 | 54 | 105 | 0.0 | 1.7 | 0.00 | 0.00 | 0.00 | 61 | 1018.1 |
| 20260506180041 | 55 | 60 | 0.0 | 1.7 | 0.00 | 0.00 | 0.00 | 58 | 1018.3 |
| 20260506174557 | 56 | 67 | 0.0 | 0.0 | 0.00 | 0.00 | 0.00 | 58 | 1018.2 |